Weather reports worldwide

Advertisment
Piacenza, Italy (16084): temperature & dewpoint: 15.05.2019 16:00:00 - 21.05.2019 16:00:00 (CEST)Piacenza, Italy (16084): wind speed: 15.05.2019 16:00:00 - 21.05.2019 16:00:00 (CEST)Piacenza, Italy (16084): wind direction: 15.05.2019 16:00:00 - 21.05.2019 16:00:00 (CEST)Piacenza, Italy (16084): reduced air pressure: 15.05.2019 16:00:00 - 21.05.2019 16:00:00 (CEST)Piacenza, Italy (16084): visibility: 15.05.2019 16:00:00 - 21.05.2019 16:00:00 (CEST)Piacenza, Italy (16084): sunshine duration: 15.05.2019 16:00:00 - 21.05.2019 16:00:00 (CEST)
Date & Time tt [°C] td [°C] ff [km/h] ff [kn] dd ppp [hPa] vv [km] sd [min]
21.05.2019 16:00:00 23,0 18,0 5 3 E - 10 -
21.05.2019 15:00:00 23,0 19,0 5 3 E - 10 -
21.05.2019 14:00:00 22,0 18,6 5 3 WSW 1007,6 20 60
21.05.2019 13:00:00 21,0 18,0 5 3 N - 10 -
21.05.2019 12:00:00 19,0 17,0 8 4 NNE - 10 -
21.05.2019 11:00:00 18,0 16,9 8 4 NE 1007,7 20 60
21.05.2019 10:00:00 17,0 17,0 4 2 ENE - 10 -
21.05.2019 09:00:00 15,0 15,0 2 1 W - 10 -
21.05.2019 08:00:00 11,0 11,0 4 2 SW 1007,5 20 6
21.05.2019 07:00:00 - - - - - - - -
21.05.2019 06:00:00 - - - - - - - -
21.05.2019 05:00:00 - - - - - - - -
21.05.2019 04:00:00 - - - - - - - -
21.05.2019 03:00:00 - - - - - - - -
21.05.2019 02:00:00 - - - - - - - -
21.05.2019 01:00:00 - - - - - - - -
21.05.2019 00:00:00 - - - - - - - -
20.05.2019 23:00:00 - - - - - - - -
20.05.2019 22:00:00 - - - - - - - -
20.05.2019 21:00:00 - - - - - - - -
20.05.2019 20:00:00 14,6 14,4 8 4 W 1005,8 18 0
20.05.2019 19:00:00 15,0 15,0 5 3 WNW - 10 -
20.05.2019 18:00:00 16,0 16,0 5 3 NW - 10 -
20.05.2019 17:00:00 16,2 16,2 2 1 SSW 1005,6 14 0
20.05.2019 16:00:00 16,0 16,0 0 0 N - 8 -
20.05.2019 15:00:00 16,0 16,0 4 2 NNE - 10 -
20.05.2019 14:00:00 16,2 16,2 2 1 NE 1005,2 12 0
20.05.2019 13:00:00 16,0 16,0 5 3 N - 10 -
20.05.2019 12:00:00 16,0 16,0 5 3 NNE - 10 -
20.05.2019 11:00:00 15,2 15,2 2 1 E 1004,8 14 0
20.05.2019 10:00:00 15,0 15,0 5 3 NNE - 10 -
20.05.2019 09:00:00 14,0 14,0 5 3 WNW - 10 -
20.05.2019 08:00:00 12,6 12,6 4 2 W 1004,0 14 0
20.05.2019 07:00:00 - - - - - - - -
20.05.2019 06:00:00 - - - - - - - -
20.05.2019 05:00:00 - - - - - - - -
20.05.2019 04:00:00 - - - - - - - -
20.05.2019 03:00:00 - - - - - - - -
20.05.2019 02:00:00 - - - - - - - -
20.05.2019 01:00:00 - - - - - - - -
20.05.2019 00:00:00 - - - - - - - -
19.05.2019 23:00:00 - - - - - - - -
19.05.2019 22:00:00 - - - - - - - -
19.05.2019 21:00:00 - - - - - - - -
19.05.2019 20:00:00 13,6 13,6 4 2 SSW 1004,3 5 0
19.05.2019 19:00:00 14,0 14,0 9 5 ENE - 5 -
19.05.2019 18:00:00 14,0 14,0 5 3 NNE - 5 -
19.05.2019 17:00:00 13,8 13,8 8 4 NNE 1004,3 4,5 0
19.05.2019 16:00:00 14,0 14,0 9 5 NE - 4,5 -
19.05.2019 15:00:00 14,0 14,0 9 5 ENE - 4,5 -
19.05.2019 14:00:00 13,6 13,6 8 4 NE 1004,3 4,0 0
19.05.2019 13:00:00 13,0 13,0 4 2 N - 2,5 -
19.05.2019 12:00:00 13,0 13,0 8 4 NNE - 2,5 -
19.05.2019 11:00:00 12,6 12,6 2 1 SSW 1004,3 2,5 0
19.05.2019 10:00:00 12,0 12,0 4 2 NNW - 1,8 -
19.05.2019 09:00:00 12,0 12,0 5 3 WNW - 2,0 -
19.05.2019 08:00:00 11,4 11,4 5 3 WNW 1004,4 2,5 0
19.05.2019 07:00:00 - - - - - - - -
19.05.2019 06:00:00 - - - - - - - -
19.05.2019 05:00:00 - - - - - - - -
19.05.2019 04:00:00 - - - - - - - -
19.05.2019 03:00:00 - - - - - - - -
19.05.2019 02:00:00 - - - - - - - -
19.05.2019 01:00:00 - - - - - - - -
19.05.2019 00:00:00 - - - - - - - -
18.05.2019 23:00:00 - - - - - - - -
18.05.2019 22:00:00 - - - - - - - -
18.05.2019 21:00:00 - - - - - - - -
18.05.2019 20:00:00 12,4 12,4 2 1 SE 1006,1 4,5 0
18.05.2019 19:00:00 12,0 12,0 4 2 E - 5 -
18.05.2019 18:00:00 13,0 13,0 16 9 ESE - 5 -
18.05.2019 17:00:00 13,4 13,4 15 8 E 1005,7 4,5 0
18.05.2019 16:00:00 13,0 13,0 18 10 E - 4,5 -
18.05.2019 15:00:00 13,0 13,0 11 6 ESE - 4,5 -
18.05.2019 14:00:00 13,0 13,0 4 2 S 1006,0 4,0 0
18.05.2019 13:00:00 13,0 13,0 9 5 SE - 4,5 -
18.05.2019 12:00:00 12,0 12,0 9 5 ESE - 4,5 -
18.05.2019 11:00:00 11,8 11,8 8 4 SE 1006,4 4,5 0
18.05.2019 10:00:00 11,0 11,0 9 5 E - 4,5 -
18.05.2019 09:00:00 11,0 11,0 9 5 E - 4,5 -
18.05.2019 08:00:00 11,0 11,0 8 4 E 1006,3 3,0 0
18.05.2019 07:00:00 - - - - - - - -
18.05.2019 06:00:00 - - - - - - - -
18.05.2019 05:00:00 - - - - - - - -
18.05.2019 04:00:00 - - - - - - - -
18.05.2019 03:00:00 - - - - - - - -
18.05.2019 02:00:00 - - - - - - - -
18.05.2019 01:00:00 - - - - - - - -
18.05.2019 00:00:00 - - - - - - - -
17.05.2019 23:00:00 - - - - - - - -
17.05.2019 22:00:00 - - - - - - - -
17.05.2019 21:00:00 - - - - - - - -
17.05.2019 20:00:00 15,0 15,0 4 2 NW 1007,6 10 -
17.05.2019 19:00:00 15,0 15,0 4 2 SSW - 10 -
17.05.2019 18:00:00 16,0 13,0 16 9 SE - 10 -
17.05.2019 17:00:00 18,0 12,0 21 11 ESE 1007,3 12 0
17.05.2019 16:00:00 19,0 12,0 24 13 ESE - 10 -
17.05.2019 15:00:00 18,0 12,0 21 11 SE - 10 -
17.05.2019 14:00:00 17,4 11,7 22 12 ESE 1008,1 12 0
17.05.2019 13:00:00 17,0 12,0 24 13 ESE - 10 -
17.05.2019 12:00:00 16,0 13,0 21 11 E - 10 -
17.05.2019 11:00:00 15,0 13,2 22 12 ESE 1008,8 10 0
17.05.2019 10:00:00 14,0 13,0 16 9 ESE - 10 -
17.05.2019 09:00:00 13,0 13,0 8 4 ESE - 10 -
17.05.2019 08:00:00 10,0 10,0 0 0 N 1009,1 15 0
17.05.2019 07:00:00 - - - - - - - -
17.05.2019 06:00:00 - - - - - - - -
17.05.2019 05:00:00 - - - - - - - -
17.05.2019 04:00:00 - - - - - - - -
17.05.2019 03:00:00 - - - - - - - -
17.05.2019 02:00:00 - - - - - - - -
17.05.2019 01:00:00 - - - - - - - -
17.05.2019 00:00:00 - - - - - - - -
16.05.2019 23:00:00 - - - - - - - -
16.05.2019 22:00:00 - - - - - - - -
16.05.2019 21:00:00 - - - - - - - -
16.05.2019 20:00:00 15,6 9,3 16 9 ESE 1008,9 25 12
16.05.2019 19:00:00 17,0 10,0 21 11 ESE - 10 -
16.05.2019 18:00:00 18,0 10,0 21 11 ESE - 10 -
16.05.2019 17:00:00 18,6 10,2 18 10 E 1009,0 25 54
16.05.2019 16:00:00 18,0 10,0 21 11 ESE - 10 -
16.05.2019 15:00:00 18,0 10,0 18 10 ESE - 10 -
16.05.2019 14:00:00 17,2 9,6 15 8 ESE 1010,7 20 60
16.05.2019 13:00:00 16,0 9,0 13 7 E - 10 -
16.05.2019 12:00:00 16,0 9,0 11 6 ESE - 10 -
16.05.2019 11:00:00 15,4 9,3 8 4 ESE 1012,5 20 60
16.05.2019 10:00:00 15,0 10,0 9 5 E - 10 -
16.05.2019 09:00:00 12,0 10,0 5 3 WSW - 10 -
16.05.2019 08:00:00 8,4 8,4 11 6 W 1013,2 30 36
16.05.2019 07:00:00 - - - - - - - -
16.05.2019 06:00:00 - - - - - - - -
16.05.2019 05:00:00 - - - - - - - -
16.05.2019 04:00:00 - - - - - - - -
16.05.2019 03:00:00 - - - - - - - -
16.05.2019 02:00:00 - - - - - - - -
16.05.2019 01:00:00 - - - - - - - -
16.05.2019 00:00:00 - - - - - - - -
15.05.2019 23:00:00 - - - - - - - -
15.05.2019 22:00:00 - - - - - - - -
15.05.2019 21:00:00 - - - - - - - -
15.05.2019 20:00:00 12,0 7,9 9 5 E 1013,8 20 48
15.05.2019 19:00:00 12,0 8,0 8 4 SE - 10 -
15.05.2019 18:00:00 13,0 9,0 11 6 SE - 10 -
15.05.2019 17:00:00 12,4 9,1 13 7 SE 1013,8 20 60
15.05.2019 16:00:00 11,0 11,0 11 6 ESE - 10 -

tt = temperature
td = dewpoint
ff = wind speed
dd = wind direction
ppp = reduced air pressure
vv = visibility
sd = sunshine duration

Next stations